Tracking 29892 objects as of 21-Nov-2024
HD Live streaming from Space Station
objects crossing your sky now

THORAD DELTA 1 DEB

Track THORAD DELTA 1 DEB now!
10-day predictions


NORAD ID: 8555
Int'l Code: 1974-089CS
Perigee: 1,402.6 km
Apogee: 1,496.4 km
Inclination: 101.4 °
Period: 114.7 minutes
Semi major axis: 7820 km
RCS: 0.0537 m2 (small)
Launch date: November 15, 1974
Source: United States (US)
Launch site: AIR FORCE WESTERN TEST RANGE (AFWTR)

Note: This is SATELLITE DEBRIS
Your satellite tracking list
Your tracking list is empty




NASA's NSSDC Master Catalog

Two Line Element Set (TLE):
1 08555U 74089CS  24325.85964094  .00001064  00000-0  67421-2 0  9995
2 08555 101.3907  91.6463 0059980  83.6641  71.0497 12.55308405281455
Source of the keplerian elements: AFSPC